Weather History for Norman, OK

Change the Weather History Date:

Monday, March 3, 2014

  Actual Average Record
Temperature  
Mean Temperature 14 °F -  
Max Temperature 24 °F 60 °F 84 °F (1955)
Min Temperature 5 °F 38 °F 4 °F (1960)
Degree Days  
Heating Degree Days 50    
Moisture  
Dew Point 9 °F    
Average Humidity 79    
Maximum Humidity 92    
Minimum Humidity 59    
Precipitation  
Precipitation 0.00 in - - ()
Sea Level Pressure  
Sea Level Pressure 30.40 in    
Wind  
Wind Speed 11 mph (NNW)    
Max Wind Speed 20 mph    
Max Gust Speed 28 mph    
Visibility 10 miles    
Events Snow    
Averages and records for this station are not official NWS values.
T = Trace of Precipitation, MM = Missing Value Source: NWS Daily Summary

Daily Weather History Graph

Daily Weather History Graph

Search for Another Location

Airport:

Trip Planner

Search our weather history database for the weather conditions in past years. The results will help you decide how hot, cold, wet, or windy it might be!

Date:

Astronomy

Mar. 03, 2014 Rise Set
Actual Time 6:56 AM CST 6:27 PM CST
Civil Twilight 6:31 AM CST 6:52 PM CST
Nautical Twilight 6:02 AM CST 7:22 PM CST
Astronomical Twilight 5:32 AM CST 7:51 PM CST
Moon 8:12 AM CST (3/3) 9:23 PM CST (3/3)
Length of Visible Light 12h 21m
Length of Day
11h 30m
Waxing Crescent, 8% of the Moon is Illuminated
Mar 3
Waxing Crescent
Mar 8
First Quarter
Mar 16
Full
Mar 23
Last Quarter
Mar 30
New

Hourly Weather History & Observations

Time (CST) Temp. Windchill Dew Point Humidity Pressure Visibility Wind Dir Wind Speed Gust Speed Precip Events Conditions
12:15 AM 10.4 °F -7.2 °F 8.6 °F 92% 30.43 in 3.0 mi North 17.3 mph - N/A Snow Light Snow
12:35 AM 10.4 °F -6.6 °F 8.6 °F 92% 30.44 in 4.0 mi NNW 16.1 mph 23.0 mph N/A Snow Light Snow
12:55 AM 10.4 °F -7.2 °F 8.6 °F 92% 30.44 in 7.0 mi NNW 17.3 mph 20.7 mph N/A   Overcast
1:15 AM 8.6 °F -10.5 °F 5.0 °F 85% 30.45 in 10.0 mi North 19.6 mph 27.6 mph N/A   Overcast
1:35 AM 8.6 °F -9.5 °F 5.0 °F 85% 30.45 in 10.0 mi North 17.3 mph 25.3 mph N/A   Overcast
1:55 AM 8.6 °F -10.0 °F 5.0 °F 85% 30.45 in 10.0 mi North 18.4 mph 27.6 mph N/A   Overcast
2:15 AM 8.6 °F -8.3 °F 5.0 °F 85% 30.46 in 10.0 mi North 15.0 mph 24.2 mph N/A   Mostly Cloudy
2:35 AM 6.8 °F -12.4 °F 5.0 °F 92% 30.45 in 10.0 mi North 18.4 mph 24.2 mph N/A   Scattered Clouds
2:55 AM 6.8 °F -10.7 °F 5.0 °F 92% 30.46 in 10.0 mi North 15.0 mph - N/A   Scattered Clouds
3:15 AM 6.8 °F -10.0 °F 3.2 °F 85% 30.45 in 10.0 mi North 13.8 mph - N/A   Scattered Clouds
3:35 AM 5.0 °F -11.6 °F 3.2 °F 92% 30.44 in 10.0 mi North 12.7 mph - N/A   Scattered Clouds
3:55 AM 6.8 °F -9.3 °F 3.2 °F 85% 30.44 in 10.0 mi North 12.7 mph 19.6 mph N/A   Mostly Cloudy
4:15 AM 6.8 °F -8.6 °F 3.2 °F 85% 30.45 in 10.0 mi North 11.5 mph - N/A   Overcast
4:35 AM 5.0 °F -10.8 °F 3.2 °F 92% 30.43 in 10.0 mi North 11.5 mph - N/A   Mostly Cloudy
4:55 AM 5.0 °F -10.8 °F 3.2 °F 92% 30.44 in 10.0 mi North 11.5 mph - N/A   Scattered Clouds
5:15 AM 5.0 °F -11.6 °F 3.2 °F 92% 30.44 in 10.0 mi North 12.7 mph 18.4 mph N/A   Scattered Clouds
5:35 AM 5.0 °F -9.1 °F 3.2 °F 92% 30.45 in 10.0 mi North 9.2 mph 17.3 mph N/A   Mostly Cloudy
5:55 AM 5.0 °F -10.0 °F 3.2 °F 92% 30.46 in 10.0 mi North 10.4 mph - N/A   Overcast
6:15 AM 5.0 °F -9.1 °F 3.2 °F 92% 30.46 in 10.0 mi North 9.2 mph - N/A   Overcast
6:35 AM 5.0 °F -8.1 °F 3.2 °F 92% 30.46 in 10.0 mi North 8.1 mph - N/A   Mostly Cloudy
6:55 AM 5.0 °F -8.1 °F 3.2 °F 92% 30.47 in 10.0 mi North 8.1 mph - N/A   Scattered Clouds
7:15 AM 5.0 °F -10.0 °F 3.2 °F 92% 30.48 in 10.0 mi North 10.4 mph - N/A   Clear
7:35 AM 6.8 °F -5.9 °F 3.2 °F 85% 30.49 in 10.0 mi NNW 8.1 mph - N/A   Clear
7:55 AM 6.8 °F -6.9 °F 3.2 °F 85% 30.50 in 10.0 mi North 9.2 mph - N/A   Clear
8:15 AM 8.6 °F -3.7 °F 3.2 °F 79% 30.51 in 10.0 mi NNW 8.1 mph - N/A   Clear
8:35 AM 8.6 °F -7.0 °F 3.2 °F 79% 30.51 in 10.0 mi North 12.7 mph - N/A   Clear
8:55 AM 10.4 °F -5.4 °F 3.2 °F 73% 30.52 in 10.0 mi NNW 13.8 mph - N/A   Clear
9:15 AM 10.4 °F -4.8 °F 5.0 °F 79% 30.51 in 10.0 mi North 12.7 mph - N/A   Clear
9:35 AM 10.4 °F -4.1 °F 5.0 °F 79% 30.51 in 10.0 mi North 11.5 mph - N/A   Clear
9:55 AM 10.4 °F -4.1 °F 5.0 °F 79% 30.51 in 10.0 mi North 11.5 mph - N/A   Clear
10:15 AM 12.2 °F -2.5 °F 5.0 °F 73% 30.51 in 10.0 mi North 12.7 mph - N/A   Clear
10:35 AM 12.2 °F -1.0 °F 6.8 °F 79% 30.51 in 10.0 mi NNW 10.4 mph - N/A   Clear
10:55 AM 14.0 °F 1.2 °F 8.6 °F 79% 30.49 in 10.0 mi North 10.4 mph - N/A   Clear
11:15 AM 14.0 °F -0.2 °F 8.6 °F 79% 30.48 in 10.0 mi NNW 12.7 mph 18.4 mph N/A   Clear
11:35 AM 15.8 °F 2.7 °F 8.6 °F 73% 30.46 in 10.0 mi North 11.5 mph - N/A   Clear
11:55 AM 15.8 °F 4.2 °F 8.6 °F 73% 30.46 in 10.0 mi North 9.2 mph - N/A   Clear
12:15 PM 17.6 °F 12.3 °F 8.6 °F 68% 30.48 in 10.0 mi NNW 3.5 mph - N/A   Clear
12:35 PM 17.6 °F 8.2 °F 10.4 °F 73% 30.47 in 10.0 mi WNW 6.9 mph - N/A   Clear
12:55 PM 19.4 °F 7.9 °F 10.4 °F 68% 30.46 in 10.0 mi NNW 10.4 mph 20.7 mph N/A   Clear
1:15 PM 19.4 °F 6.0 °F 10.4 °F 68% 30.44 in 10.0 mi NW 13.8 mph 23.0 mph N/A   Clear
1:35 PM 19.4 °F 8.6 °F 12.2 °F 74% 30.41 in 10.0 mi North 9.2 mph 19.6 mph N/A   Clear
1:55 PM 19.4 °F 10.4 °F 10.4 °F 68% 30.41 in 10.0 mi NNW 6.9 mph 21.9 mph N/A   Clear
2:15 PM 19.4 °F 14.3 °F 10.4 °F 68% 30.38 in 10.0 mi North 3.5 mph - N/A   Clear
2:35 PM 21.2 °F 10.9 °F 12.2 °F 68% 30.36 in 10.0 mi North 9.2 mph - N/A   Clear
2:55 PM 23.0 °F 13.9 °F 12.2 °F 63% 30.35 in 10.0 mi North 8.1 mph - N/A   Clear
3:15 PM 23.0 °F 15.8 °F 12.2 °F 63% 30.35 in 10.0 mi North 5.8 mph - N/A   Clear
3:35 PM 23.0 °F 14.7 °F 12.2 °F 63% 30.34 in 10.0 mi North 6.9 mph - N/A   Clear
3:55 PM 23.0 °F 13.1 °F 14.0 °F 68% 30.31 in 10.0 mi North 9.2 mph - N/A   Clear
4:15 PM 24.8 °F 15.3 °F 14.0 °F 64% 30.32 in 10.0 mi North 9.2 mph 20.7 mph N/A   Clear
4:35 PM 24.8 °F - 12.2 °F 59% 30.33 in 10.0 mi Calm Calm - N/A   Clear
4:55 PM 23.0 °F 17.0 °F 12.2 °F 63% 30.34 in 10.0 mi NW 4.6 mph - N/A   Clear
5:15 PM 23.0 °F 14.7 °F 12.2 °F 63% 30.33 in 10.0 mi West 6.9 mph - N/A   Clear
5:35 PM 23.0 °F 17.0 °F 12.2 °F 63% 30.33 in 10.0 mi NW 4.6 mph - N/A   Clear
5:55 PM 23.0 °F 18.4 °F 12.2 °F 63% 30.34 in 10.0 mi NW 3.5 mph - N/A   Clear
6:15 PM 21.2 °F 13.6 °F 14.0 °F 74% 30.33 in 10.0 mi WNW 5.8 mph - N/A   Clear
6:35 PM 21.2 °F 13.6 °F 14.0 °F 74% 30.32 in 10.0 mi WNW 5.8 mph - N/A   Clear
6:55 PM 21.2 °F 16.4 °F 12.2 °F 68% 30.32 in 10.0 mi West 3.5 mph - N/A   Clear
7:15 PM 21.2 °F 16.4 °F 12.2 °F 68% 30.32 in 10.0 mi West 3.5 mph - N/A   Clear
7:35 PM 19.4 °F - 12.2 °F 74% 30.32 in 10.0 mi Calm Calm - N/A   Clear
7:55 PM 21.2 °F - 12.2 °F 68% 30.33 in 10.0 mi Calm Calm - N/A   Clear
8:15 PM 19.4 °F - 14.0 °F 80% 30.31 in 10.0 mi Calm Calm - N/A   Clear
8:35 PM 19.4 °F - 12.2 °F 74% 30.31 in 10.0 mi Calm Calm - N/A   Clear
8:55 PM 19.4 °F - 14.0 °F 80% 30.31 in 10.0 mi Calm Calm - N/A   Clear
9:15 PM 19.4 °F - 14.0 °F 80% 30.30 in 10.0 mi Calm Calm - N/A   Clear
9:35 PM 19.4 °F - 14.0 °F 80% 30.29 in 10.0 mi Calm Calm - N/A   Clear
9:55 PM 19.4 °F - 14.0 °F 80% 30.29 in 10.0 mi Calm Calm - N/A   Clear
10:15 PM 19.4 °F - 14.0 °F 80% 30.30 in 10.0 mi Calm Calm - N/A   Clear
10:35 PM 17.6 °F 12.3 °F 14.0 °F 86% 30.30 in 10.0 mi West 3.5 mph - N/A   Clear
10:55 PM 17.6 °F - 12.2 °F 79% 30.29 in 10.0 mi Calm Calm - N/A   Clear
11:15 PM 17.6 °F - 14.0 °F 86% 30.29 in 10.0 mi Calm Calm - N/A   Clear
11:35 PM 17.6 °F - 14.0 °F 86% 30.29 in 10.0 mi Calm Calm - N/A   Clear
11:55 PM 17.6 °F - 14.0 °F 86% 30.28 in 10.0 mi Calm Calm - N/A   Clear